User: anonymous
Location: Caltech
(34.1382°N, 118.1253°W)
Time: 11:17:33
(UTC-07:00)
Language:

Cosmos 1484 Rocket - Orbit

View from above orbital plane
View from above orbital plane
View from above satellite
View from above satellite

Ground track
Ground track

The orbit data is extracted from the following two-line orbital elements,

1 14208U 83075B   14274.08445002  .00002912  00000-0  19352-3 0  1392
2 14208 097.4164 307.1633 0040461 301.0719 058.6540 15.07305098698152
Epoch (UTC): 01 October 2014 02:01:36
Eccentricity: 0.0040461
inclination: 97.4164°
perigee height: 516 km
apogee height: 572 km
right ascension of ascending node: 307.1633°
argument of perigee: 301.0719°
revolutions per day: 15.07305098
mean anomaly at epoch: 58.6540°
orbit number at epoch: 69815

The dashed part of the orbit path shows where the satellite is in the earth's shadow,  

DLR